This demonstration page uses our WeatherBlox Daily Observations layout. Learn more.

Left ArrowRight Arrow

40.92945, -100.16068

Hourly Observations for February 15, 2018

Temp ( °F °C ) Dew Point ( °F °C ) Humidity (%) Winds ( mph kmh ) Pressure ( in mb ) Visibility ( mi km ) Precip ( " mm )
12:15 am 00:15 Clear 35 1.9 32 undefined 87 87 WSW 5 7 29.80 1009 10 16 N/A
12:35 am 00:35 Clear 35 1.9 32 undefined 87 87 W 8 13 29.80 1009 10 16 N/A
12:55 am 00:55 Clear 36 2 32 undefined 87 87 N N/A 29.80 1009 10 16 N/A
1:15 am 01:15 Clear 36 2 32 undefined 87 87 N N/A 29.80 1009 10 16 N/A
1:35 am 01:35 Partly Cloudy 35 1.9 32 undefined 87 87 N N/A 29.80 1009 10 16 N/A
1:55 am 01:55 Partly Cloudy 36 2.1 32 undefined 86 86 N N/A 29.80 1009 10 16 N/A
2:15 am 02:15 Partly Cloudy 35 1.9 32 undefined 87 87 WNW 5 7 29.80 1009 10 16 N/A
2:35 am 02:35 Partly Cloudy 35 1.8 32 undefined 88 88 NNW 3 6 29.80 1009 10 16 N/A
2:55 am 02:55 Mostly Cloudy 35 1.9 32 undefined 87 87 N N/A 29.77 1008 10 16 N/A
3:15 am 03:15 Partly Cloudy 35 1.7 32 undefined 89 89 NW 8 13 29.77 1008 10 16 N/A
3:35 am 03:35 Partly Cloudy 36 2.2 32 undefined 86 86 NW 5 7 29.77 1008 10 16 N/A
3:55 am 03:55 Partly Cloudy 36 2 32 undefined 87 87 N 7 11 29.77 1008 10 16 N/A
4:15 am 04:15 Clear 36 2.4 32 undefined 84 84 NNW 8 13 29.77 1008 10 16 N/A
4:35 am 04:35 Clear 35 1.9 32 -0.2 86 86 WNW 8 13 29.77 1008 10 16 N/A
4:55 am 04:55 Clear 35 1.7 32 -0.2 87 87 WNW 8 13 29.77 1008 10 16 N/A
5:15 am 05:15 Clear 35 1.4 31 -0.5 87 87 WNW 8 13 29.77 1008 10 16 N/A
5:35 am 05:35 Clear 34 1.2 31 -0.7 87 87 WNW 7 11 29.77 1008 10 16 N/A
5:55 am 05:55 Partly Cloudy 35 1.4 31 -0.7 86 86 W 7 11 29.80 1009 10 16 N/A
6:15 am 06:15 Cloudy 34 1.2 31 -0.6 88 88 WSW 6 9 29.85 1011 10 16 N/A
6:35 am 06:35 Mostly Cloudy 33 0.8 30 -1 88 88 SW 7 11 29.85 1011 10 16 N/A
6:55 am 06:55 Mostly Cloudy 33 0.3 30 -1.2 90 90 NW 6 9 29.85 1011 10 16 N/A
7:15 am 07:15 Mostly Cloudy 33 0.3 30 -1.3 89 89 N 6 9 29.85 1011 10 16 N/A
7:35 am 07:35 Partly Cloudy 32 undefined 29 -1.6 89 89 N N/A 29.85 1011 10 16 N/A
7:55 am 07:55 Sunny 32 undefined 29 -1.7 88 88 NW 6 9 29.88 1012 10 16 N/A
8:15 am 08:15 Sunny 32 undefined 29 -1.7 88 88 WNW 7 11 29.88 1012 10 16 N/A
8:35 am 08:35 Sunny 32 0.1 29 -1.6 88 88 WNW 9 15 29.91 1013 10 16 N/A
8:55 am 08:55 Sunny 32 undefined 29 -1.8 88 88 NW 5 7 29.91 1013 10 16 N/A
9:15 am 09:15 Sunny 32 0.1 29 -1.8 87 87 NW 3 6 29.91 1013 10 16 N/A
9:35 am 09:35 Sunny 32 undefined 28 -2 87 87 WNW 7 11 29.91 1013 10 16 N/A
9:55 am 09:55 Sunny 32 0.2 29 -1.8 87 87 N N/A 29.91 1013 10 16 N/A
10:15 am 10:15 Sunny 32 undefined 28 -2.1 86 86 WNW 7 11 29.91 1013 10 16 N/A
10:35 am 10:35 Sunny 34 1 30 -1.2 85 85 N N/A 29.91 1013 10 16 N/A
10:55 am 10:55 Sunny 37 2.5 31 -0.6 80 80 N N/A 29.88 1012 10 16 N/A
11:15 am 11:15 Sunny 38 3.6 31 -0.5 75 75 W 3 6 29.88 1012 10 16 N/A
11:35 am 11:35 Mostly Cloudy 39 3.9 31 -0.8 72 72 NW 7 11 29.91 1013 10 16 N/A
11:55 am 11:55 Partly Cloudy 40 4.5 31 -0.6 70 70 NNW 6 9 29.94 1014 10 16 N/A
12:15 pm 12:15 Sunny 41 5.1 31 -0.7 66 66 WNW 7 11 29.94 1014 10 16 N/A
12:35 pm 12:35 Sunny 41 5.1 29 -1.6 62 62 N 9 15 29.94 1014 10 16 N/A
12:55 pm 12:55 Sunny 40 4.7 29 -1.5 64 64 N 7 11 29.94 1014 10 16 N/A
1:15 pm 13:15 Sunny 40 4.5 30 -1.1 67 67 N 6 9 29.94 1014 10 16 N/A
1:35 pm 13:35 Sunny 40 4.4 30 -1.2 67 67 NNE 6 9 29.94 1014 10 16 N/A
1:55 pm 13:55 Sunny 40 4.2 30 -1.1 69 69 NE 7 11 29.94 1014 10 16 N/A
2:15 pm 14:15 Sunny 40 4.5 30 -1.1 67 67 NNE 6 9 29.94 1014 10 16 N/A
2:35 pm 14:35 Sunny 40 4.3 31 -0.7 70 70 N 6 9 29.94 1014 10 16 N/A
2:55 pm 14:55 Sunny 40 4.5 31 -0.7 69 69 N 3 6 29.94 1014 10 16 N/A
3:15 pm 15:15 Partly Cloudy 40 4.7 31 -0.8 68 68 N N/A 29.97 1015 10 16 N/A
3:35 pm 15:35 Partly Cloudy 40 4.5 31 -0.3 71 71 N 6 9 29.97 1015 10 16 N/A
3:55 pm 15:55 Mostly Cloudy 40 4.3 31 -0.5 71 71 N 9 15 30.00 1016 10 16 N/A
4:15 pm 16:15 Cloudy 39 4.1 31 -0.5 72 72 N 7 11 30.03 1017 10 16 N/A
4:35 pm 16:35 Cloudy 39 4 31 -0.4 73 73 N 10 17 30.03 1017 10 16 N/A
4:55 pm 16:55 Cloudy 39 4 31 -0.5 73 73 N 12 19 30.06 1018 10 16 N/A
5:15 pm 17:15 Cloudy 38 3.6 31 -0.5 75 75 N 14 22 30.09 1019 10 16 N/A
5:35 pm 17:35 Cloudy 38 3.2 31 -0.5 77 77 N 14 22 30.12 1020 10 16 N/A
5:55 pm 17:55 Cloudy 37 2.9 31 -0.5 79 79 N 15 24 30.12 1020 10 16 N/A
6:15 pm 18:15 Mostly Cloudy 37 2.6 31 -0.8 79 79 N 22 35 30.12 1020 10 16 N/A
6:35 pm 18:35 Cloudy 36 2.3 31 -0.8 80 80 N 21 33 30.15 1021 10 16 N/A
6:55 pm 18:55 Cloudy 36 2 31 -0.8 82 82 N 20 31 30.15 1021 10 16 N/A
7:15 pm 19:15 Cloudy 35 1.6 31 -0.7 85 85 N 22 35 30.18 1022 10 16 N/A
7:35 pm 19:35 Cloudy 33 0.6 29 -1.9 84 84 N 29 46 30.21 1023 10 16 N/A
7:55 pm 19:55 Cloudy 31 -0.6 26 -3.1 83 83 N 28 44 30.24 1024 10 16 N/A
8:15 pm 20:15 Cloudy 29 -1.4 26 -3.6 85 85 N 26 43 30.30 1026 10 16 N/A
8:35 pm 20:35 Cloudy 29 -1.8 25 -4 85 85 N 28 44 30.33 1027 10 16 N/A
8:55 pm 20:55 Cloudy 27 -2.6 23 -5.1 83 83 N 29 46 30.33 1027 10 16 N/A
9:15 pm 21:15 Cloudy 26 -3.2 21 -6.3 79 79 N 29 46 30.36 1028 10 16 N/A
9:35 pm 21:35 Cloudy 25 -4 19 -7.4 77 77 N 30 48 30.39 1029 10 16 N/A
9:55 pm 21:55 Cloudy 23 -4.8 17 -8.5 76 76 N 23 37 30.42 1030 10 16 N/A
10:15 pm 22:15 Mostly Cloudy 23 -5.1 17 -8.5 77 77 N 21 33 30.42 1030 10 16 N/A
10:35 pm 22:35 Partly Cloudy 22 -5.3 16 -8.7 77 77 N 25 41 30.42 1030 10 16 N/A
10:55 pm 22:55 Mostly Cloudy 22 -5.6 16 -9 77 77 N 22 35 30.48 1032 10 16 N/A
11:15 pm 23:15 Partly Cloudy 21 -6.1 15 -9.6 77 77 N 23 37 30.48 1032 10 16 N/A
11:35 pm 23:35 Partly Cloudy 20 -6.6 14 -10.2 76 76 N 22 35 30.50 1033 10 16 N/A
11:55 pm 23:55 Mostly Cloudy 19 -7 14 -10.2 78 78 N 22 35 30.53 1034 10 16 N/A

Powered by AerisWeather